Showing default

LEMUR 2 THENICKMOLO, 43185

Orbit data source: Space-Track

LEMUR 2 THENICKMOLO, 43185 is a payload satellite owned by Spire (US) in SSO that was launched on Thu, 01 Feb 2018 UTC via a SOYUZ-2-1A launch vehicle from the Vostochny Cosmodrome (VOSTO). Payload-class satellites include a variety of spacecraft equipped with specific instruments for various scientific and technological missions. These include communications satellites like Starlink; space stations such as the ISS; scientific satellites like the Hubble; Earth observation satellites from companies like Planet Labs, Umbra, and HawkEye 360; GPS; miniature CubeSats for education and research; and military/defense satellites.

Loading next visibility...
Identifier
43185, 2018-014F
Orbit
SSO
Last TLE update
15 hours ago
Origin
Manufacturer
Spire/Glasgow
Mission
Operational Commercial Com/MetRO
Bus & Motor
CUBESAT 3U, Unknown motor
Mass
4.6 kg wet, 4.6 kg dry
Launch date (UTC)
2018-02-01 (7 years ago)
Launch vehicle
SOYUZ-2-1A
Launch site
Vostochny Cosmodrome (VOSTO)
Object type
Payload
Rocket body
Debris
Shape & HBR
Box + 2 Pan, 0.7 m
Radar Cross Section
0.124 m², Small (<0.1 m²)

Expand to show TLE details & history

TLE from 15 hours ago
0 LEMUR 2 THENICKMOLO
1 43185U 18014F   25188.73897423  .00086923  00000-0  10523-2 0  9993
2 43185  97.5626 107.7040 0005809  82.5455 277.6462 15.60368730407877
Epoch: 2025-07-07T17:44Z
TLE epoch observation values (Epoch: 2025-07-07T17:44:07.373Z)
Latitude
0.00004°
Longitude
-84.27072°
Altitude
389.211 km
Speed
7.677 km/s
True Right ascension
07h 10m 48s
True Declination
0° 00' 00"
Sunlit
Object was in daylight at epoch
Visualization orbit readout
Latitude
-3.10216°
Longitude
95.96895°
Altitude
390.748 km
Speed
7.675 km/s
Apparent Right ascension
16h 44m 18s
Apparent Declination
-59° 03' 14"
Sunlit
Object is in full shadow
Visualization observer readout
Local Sidereal Time
20:27:47
Azimuth
206.793° SW
Elevation
-19.21°
Doppler factor
1
Orbital elements
Apogee altitude
387.438 km
Perigee altitude
379.582 km
Semi-major axis
6,761.647 km
Eccentricity
0.00058
Inclination
97.5626°
RAAN
107.704°
Arg. of periapsis
82.5455°
True anomaly
Unknown
Mean anomaly
277.6462°
Eccentric anomaly
Unknown
Mean motion
3.90359 °/min
Orbital period
92.22 mins
BSTAR
0.0010523
Loading maneuver chart data...
Loading SW <> Apogee altitude chart data...
Loading historical data...
Loading historical data...
Loading historical data...
Loading historical data...
Loading historical data...
Loading historical data...
Loading historical data...

LEMUR 2 THENICKMOLO Visibility forecast

Observer location: undefined°, undefined°

Span
Click to sort rows by Start time (UTC) header in descending order
Start Az.
Max El. time (UTC)
Max El. Az.
Max El.
End time (UTC)
End Az.
4 mins2025-07-08 18:30:05.212Z151.063° SSE2025-07-08 18:32:05.212Z67.287° ENE40.428°2025-07-08 18:34:05.212Z359.447° N
|